Terminal Aerodrome Forecast
Issued by NWS Rapid City, SD

Home | Current Version | Previous Version | Text Only | Print | Product List | Glossary Off
Versions: 1 2 3 4 5 6 7 8 9 10 11 12 13 14 15 16 17 18 19 20 21 22

000
FTUS43 KUNR 240316 AAA
TAFRAP
TAF AMD
KRAP 240316Z 2403/2424 34015G25KT P6SM BKN030
     FM240600 35015G25KT P6SM SCT050 BKN120
     FM241500 01011KT P6SM BKN150=

USA.gov is the U.S. government's official web portal to all federal, state and local government web resources and services.